Location: Caltech
(34.1382°N, 118.1253°W)
Time: 14:49:22
(UTC-08:00)

Cosmos 44 Rocket - Visible Passes

Search period start: 20 November 2017 00:00
Search period end: 30 November 2017 00:00
Orbit: 656 x 734 km, 65.1° (Epoch: 20 November)

Date Brightness Start Highest point End Pass type
(mag) Time Alt. Az. Time Alt. Az. Time Alt. Az.
20 Nov 5.4 17:48:52 10° NNE 17:49:09 10° NNE 17:49:09 10° NNE visible
20 Nov 5.9 19:27:29 10° NNW 19:27:55 12° NNW 19:27:55 12° NNW visible
21 Nov 4.6 18:28:14 10° N 18:30:45 25° NNE 18:30:45 25° NNE visible
22 Nov 4.9 17:29:58 10° NNE 17:32:38 14° NE 17:33:54 13° ENE visible
22 Nov 4.5 19:09:42 10° NW 19:12:43 37° NW 19:12:43 37° NW visible
23 Nov 3.6 18:10:14 10° NNW 18:14:56 44° ENE 18:16:23 35° E visible
23 Nov 5.9 19:52:46 10° WNW 19:55:15 18° W 19:55:15 18° W visible
24 Nov 4.7 17:11:34 10° N 17:14:59 18° NE 17:18:25 10° E visible
24 Nov 4.1 18:51:59 10° NW 18:56:44 50° WSW 19:00:05 19° S visible
25 Nov 3.3 17:52:18 10° NNW 17:57:09 59° ENE 18:02:05 10° SE visible
25 Nov 6.3 19:35:50 10° WNW 19:38:10 13° WSW 19:40:31 10° SW visible
26 Nov 4.8 18:34:21 10° NW 18:38:52 37° WSW 18:43:28 10° S visible
27 Nov 3.3 17:34:26 10° NNW 17:39:21 80° ENE 17:44:22 10° SSE visible
28 Nov 5.5 18:16:50 10° NW 18:20:59 27° WSW 18:25:12 10° SSW visible
29 Nov 3.6 17:16:36 10° NNW 17:21:32 77° WSW 17:26:32 10° SSE visible
